Location: Cicognara
(44.9500°N, 10.4667°E)
Time: 02:28:43
(UTC+00:00)

Meteor 1-24 Rocket - Visible Passes

Search period start: 17 October 2021 00:00
Search period end: 27 October 2021 00:00
Orbit: 790 x 927 km, 81.2° (Epoch: 16 October)

Date Brightness Start Highest point End Pass type
(mag) Time Alt. Az. Time Alt. Az. Time Alt. Az.
17 Oct 5.8 17:34:48 10° NNW 17:39:49 32° W 17:44:58 10° SSW visible
18 Oct 5.3 05:04:36 10° SSE 05:09:30 40° E 05:14:30 10° NNE visible
18 Oct 5.7 17:25:09 10° NNW 17:30:15 34° W 17:35:27 10° SSW visible
19 Oct 5.3 04:55:03 10° SSE 04:59:54 38° E 05:04:52 10° NNE visible
19 Oct 5.7 17:15:31 10° NNW 17:20:40 35° W 17:25:56 10° SSW visible
20 Oct 5.4 04:45:29 10° SSE 04:50:18 37° E 04:55:14 10° NNE visible
20 Oct 5.7 17:05:52 10° NNW 17:11:05 36° W 17:16:26 10° SSW visible
21 Oct 5.4 04:35:55 10° SSE 04:40:42 36° E 04:45:37 10° NNE visible
21 Oct 5.6 16:56:15 10° NNW 17:01:30 37° W 17:06:54 10° SSW visible
22 Oct 5.4 04:26:22 10° SSE 04:31:07 35° E 04:35:59 10° NNE visible
22 Oct 5.6 16:46:36 10° NNW 16:51:55 39° W 16:57:23 10° SSW visible
23 Oct 5.5 04:16:48 10° SSE 04:21:31 33° E 04:26:21 10° NNE visible
23 Oct 5.5 16:36:58 10° NNW 16:42:21 40° W 16:47:50 10° SSW visible
24 Oct 5.5 04:07:14 10° SSE 04:11:55 32° E 04:16:44 10° NNE visible
25 Oct 5.5 03:57:41 10° SSE 04:02:20 31° E 04:07:06 10° NNE visible
26 Oct 5.6 03:48:08 10° SSE 03:52:45 30° E 03:57:28 10° NNE visible
